Dewpoint
46 40 38 35 20 9 8 6 12 18 20 32 27 31 36 40 40 47 62 63 62 60 65 70 70 69 68 67 68 68 68 68 67 67 67 68 69 69 68 68 68 68 68 68 68 67 67 67 67
45 38 35 24 10 4 3 3 15 15 24 24 31 33 35 37 54 55 60 64 63 60 64 68 71 70 69 69 69 69 68 68 68 69 69 68 68 67 67 68 68 67 67 66 66 66 66 66 66
40 37 25 14 8 -2 -2 13 13 19 20 21 25 30 32 47 55 57 61 65 63 60 62 67 71 70 69 69 69 69 69 69 69 69 69 67 65 65 64 65 66 66 65 64 64 64 63 62 62
34 30 18 6 4 6 9 8 14 17 17 20 20 20 33 56 53 57 62 65 62 60 62 70 71 70 70 69 70 69 70 69 69 68 66 65 64 64 64 64 63 63 62 62 62 60 59 59 59
31 21 11 9 5 5 13 12 13 12 9 10 15 19 24 49 52 57 62 65 62 60 64 69 70 70 70 70 70 70 69 68 68 66 65 65 64 62 61 60 60 60 59 59 59 58 58 57 56
25 19 7 4 3 7 11 7 12 8 6 11 13 15 23 44 46 57 63 65 65 64 65 67 70 70 69 70 70 69 69 67 66 65 64 62 60 59 59 59 58 58 57 57 57 56 57 57 58
25 18 9 11 7 7 9 12 15 14 15 11 22 21 21 43 43 59 64 65 66 65 66 66 67 68 69 69 69 68 67 66 64 62 60 59 59 59 59 58 57 56 56 55 55 56 57 60 61
34 22 13 12 10 10 12 21 17 22 19 21 24 18 14 40 43 41 54 59 66 66 66 66 67 67 67 68 68 67 66 64 61 61 60 60 59 58 57 56 56 55 55 56 57 56 59 61 62
35 21 11 10 13 12 16 20 21 19 27 27 23 22 25 28 30 35 42 50 55 64 65 65 66 66 68 66 65 64 62 61 61 60 59 56 52 52 54 58 57 56 57 57 56 59 61 61 60
30 20 14 17 17 17 20 20 22 24 24 22 20 22 26 27 27 27 34 41 48 53 63 65 67 67 67 64 63 61 59 58 55 53 51 46 47 49 51 55 57 58 57 57 57 60 60 59 53
32 22 23 23 22 27 26 25 26 24 23 24 23 21 21 24 28 30 29 33 39 46 59 66 66 65 63 61 62 60 57 54 51 50 47 46 49 48 47 48 47 48 54 50 53 53 51 49 49
29 26 29 29 29 30 29 30 28 27 26 26 27 26 27 27 25 28 28 30 33 43 51 64 65 64 62 61 59 57 54 51 48 49 48 48 48 46 44 43 45 44 45 47 47 47 48 49 49
32 31 30 31 31 31 31 30 29 28 28 28 28 28 28 28 28 29 29 28 29 33 43 61 63 62 61 59 57 53 49 46 45 47 47 48 48 47 43 41 41 41 44 46 47 46 47 47 48
33 33 33 33 32 31 30 30 29 27 28 27 27 27 27 27 28 29 29 29 27 28 38 59 62 62 61 57 54 50 47 45 45 46 47 47 47 45 42 39 39 39 43 46 46 46 47 48 47
34 32 31 31 30 29 30 27 26 26 28 28 27 27 27 27 27 28 29 29 28 27 35 57 60 61 60 57 51 49 47 45 45 46 46 45 45 43 40 38 37 38 43 46 47 46 44 43 42
31 30 28 27 29 27 29 24 24 27 27 26 26 26 27 28 28 28 29 30 30 29 32 52 59 59 57 56 52 50 48 47 46 46 46 44 43 41 39 37 36 37 43 45 45 43 42 40 40
31 26 23 23 28 27 28 26 27 27 27 27 27 27 28 28 28 29 31 32 31 29 29 46 58 57 55 55 54 50 48 47 46 45 45 43 42 40 37 34 34 34 38 41 41 41 38 33 29
23 24 25 24 25 28 28 27 27 26 26 26 26 26 26 27 28 29 28 31 32 33 34 46 57 56 54 55 54 52 50 47 45 45 46 43 40 37 35 32 30 31 32 32 32 31 29 27 27
28 28 27 28 28 28 27 27 27 26 25 25 25 25 25 26 28 30 30 31 33 35 38 54 55 54 53 53 51 49 48 47 45 45 45 41 38 36 34 32 29 27 27 27 26 29 29 31 30
29 28 28 26 26 26 27 26 26 23 23 23 24 24 25 26 27 29 30 30 32 34 46 55 54 52 52 52 52 51 48 46 44 44 43 40 38 36 33 31 30 30 29 28 28 29 29 31 33
29 28 27 25 26 28 27 24 18 20 22 23 26 28 29 30 29 29 29 30 32 35 51 53 53 51 51 52 52 51 49 45 43 43 42 39 36 34 34 33 32 32 32 34 34 32 30 32 32
30 28 25 27 27 24 30 21 22 21 19 19 25 28 29 31 34 30 29 30 32 36 53 52 52 52 52 52 50 48 46 43 43 42 41 38 36 35 35 35 35 35 35 36 35 35 36 34 33
28 29 29 29 29 30 25 26 19 18 14 20 25 28 29 32 32 35 29 31 31 41 52 53 51 51 52 52 51 50 48 45 42 42 39 38 37 38 38 38 38 38 39 38 39 39 39 39 38
30 30 28 31 31 23 20 21 18 17 17 19 24 30 33 35 35 36 31 30 31 47 53 52 51 51 51 51 51 50 49 46 42 40 39 38 39 40 40 40 40 39 40 40 41 41 41 40 39
30 25 22 18 21 17 15 16 17 17 19 22 29 32 34 37 37 37 29 28 32 51 52 51 51 50 51 51 51 50 48 45 42 41 40 40 40 41 41 41 41 41 42 41 42 41 41 40 38
25 27 24 17 14 18 19 17 15 17 20 28 30 32 35 38 38 36 29 30 42 51 51 50 50 50 51 51 51 50 49 45 43 42 42 42 42 43 43 43 43 42 42 42 42 42 41 41 40
24 26 30 26 22 18 15 14 14 19 25 28 29 32 37 38 38 34 30 33 49 50 50 50 49 50 50 50 50 48 47 45 43 43 44 44 45 44 44 43 43 42 42 41 41 39 37 37 37
28 27 25 24 19 14 13 13 17 18 26 27 26 34 38 41 40 32 30 42 47 50 50 50 50 49 50 49 48 47 45 44 44 44 44 45 45 44 44 43 42 41 40 38 36 33 31 32 30
20 25 31 30 27 21 17 14 17 22 25 26 32 37 40 43 37 33 40 45 48 50 50 50 50 49 49 49 47 46 44 44 43 42 42 42 42 42 41 40 38 35 32 29 27 27 25 24 25
23 23 22 24 20 23 22 20 19 21 22 29 34 37 42 41 41 45 46 48 49 49 49 50 49 47 47 48 47 46 43 42 42 42 42 42 41 39 36 32 27 21 20 20 18 19 19 19 20
Wind_Speed
20 13 8 6 7 8 17 18 6 5 7 6 6 7 10 9 9 3 5 2 4 14 22 22 21 20 19 17 17 15 14 14 14 12 12 11 10 11 10 9 8 8 9 10 11 11 10 10 9
16 12 6 4 9 15 15 13 4 4 6 9 5 5 7 4 10 4 3 11 7 15 22 22 22 21 19 18 17 16 15 14 14 12 10 11 12 12 10 10 9 11 12 11 9 9 8 9 8
12 6 5 5 11 18 13 5 3 6 5 7 6 3 5 4 10 5 8 7 7 15 19 18 23 22 20 18 17 16 16 14 13 13 14 12 9 7 6 6 7 9 10 7 7 8 7 7 7
6 5 5 9 15 10 7 2 4 8 3 1 5 12 4 5 8 10 11 6 9 15 18 24 22 22 21 20 18 17 15 15 14 13 11 10 9 7 8 8 7 8 7 6 7 7 6 6 6
4 4 9 9 14 10 6 10 10 11 11 9 5 7 5 6 13 11 7 3 9 12 12 20 22 21 21 19 18 17 17 14 13 11 11 11 10 9 8 7 7 7 6 6 7 7 7 6 6
4 4 8 13 13 4 8 10 10 12 11 9 12 14 10 8 14 11 9 3 7 7 6 14 21 20 21 18 18 17 16 14 13 12 11 10 10 10 9 8 7 7 7 6 7 7 7 7 7
5 6 11 12 14 13 12 6 12 12 13 15 5 12 7 4 11 12 16 4 6 13 11 15 20 20 18 18 18 18 16 14 14 13 11 10 9 10 10 9 8 7 7 6 7 7 7 9 9
5 4 6 5 10 13 5 8 9 12 16 9 8 8 13 6 7 11 8 10 9 15 13 18 18 21 19 17 19 18 15 14 13 14 13 11 10 9 9 10 8 8 7 7 7 6 8 10 9
3 5 8 10 8 8 5 12 14 13 14 16 19 19 17 19 12 11 11 7 8 12 17 15 17 19 18 17 17 19 16 14 14 14 14 15 10 9 9 11 9 8 8 8 8 8 10 10 8
3 5 7 7 11 15 16 17 19 17 19 22 20 20 19 20 19 18 13 14 9 10 16 15 11 15 15 16 19 17 16 14 14 13 13 10 9 7 11 10 10 11 10 8 8 8 8 10 8
3 5 9 11 12 14 20 22 20 21 29 25 21 22 18 16 17 19 20 17 15 12 6 8 12 17 18 17 15 14 14 13 12 14 12 9 10 10 10 10 9 9 10 9 9 8 7 3 4
6 9 10 10 14 19 22 23 28 26 36 27 27 28 27 26 25 24 25 22 18 13 12 11 14 17 18 14 16 15 14 13 12 12 12 11 9 9 9 8 7 7 6 6 5 5 6 5 4
13 10 10 15 21 21 24 29 31 35 31 29 29 27 28 28 27 25 25 26 23 20 13 12 13 17 18 18 14 17 15 15 14 13 13 11 10 9 9 8 7 6 5 5 5 5 5 5 5
8 15 22 18 19 20 23 26 26 34 19 18 22 24 24 26 26 26 27 28 27 23 18 16 17 15 14 22 18 17 16 15 14 13 12 12 11 10 9 9 7 7 6 5 5 6 4 5 4
12 17 17 12 7 15 15 25 18 16 12 20 21 24 25 26 26 28 27 27 26 23 18 17 16 17 12 15 17 17 15 14 14 12 13 13 13 12 11 9 9 7 5 7 7 6 4 5 4
9 9 10 6 11 13 5 26 18 22 18 23 26 23 23 25 27 26 25 26 26 25 21 15 14 14 15 8 12 16 15 12 14 14 13 13 13 13 11 10 9 7 6 6 7 6 5 4 3
5 13 24 20 7 13 8 29 22 18 26 38 35 35 35 33 33 25 23 25 25 25 22 17 16 18 11 10 7 9 17 12 13 12 12 13 13 12 11 10 9 9 7 6 6 4 4 4 3
20 26 26 27 11 28 30 37 40 30 29 36 34 31 30 30 30 30 29 24 23 23 23 18 18 16 17 12 6 11 14 10 13 12 12 13 11 11 11 10 10 9 8 7 5 6 5 4 2
20 23 28 29 27 21 23 35 42 40 30 30 25 22 23 26 24 26 27 24 22 21 21 20 22 21 21 19 20 10 16 17 13 12 14 12 11 11 11 10 9 6 7 7 7 6 7 6 2
18 24 29 27 17 24 29 42 38 33 16 15 16 16 18 22 20 22 25 25 24 21 20 23 23 24 22 19 16 9 11 15 14 15 13 12 13 11 11 11 9 9 9 8 7 5 6 4 5
19 22 26 28 30 26 23 31 21 22 23 11 6 10 14 19 20 20 25 24 23 22 17 21 24 26 24 21 19 12 9 10 14 16 14 12 13 11 11 11 10 8 8 8 7 5 3 6 6
17 12 23 29 24 17 12 27 22 21 16 19 9 15 17 21 24 20 24 25 22 23 19 22 25 25 23 22 21 27 12 9 12 17 14 14 13 13 12 11 11 9 9 9 7 7 5 5 6
12 19 27 32 30 21 20 12 12 25 23 5 14 17 21 28 26 26 23 24 20 19 18 21 26 26 23 21 19 21 18 11 11 16 19 15 13 13 12 12 11 10 9 9 8 8 8 9 8
19 21 29 13 3 7 10 13 24 24 22 23 15 19 26 33 31 26 21 22 19 17 19 20 25 25 24 22 24 18 18 16 14 17 18 15 13 12 12 12 11 10 11 10 9 9 9 10 9
5 21 15 5 10 18 15 28 28 31 21 22 17 27 35 35 25 23 19 22 20 20 19 22 24 24 23 23 21 17 20 19 17 18 17 17 15 13 13 13 11 10 10 10 10 9 9 9 10
18 7 9 12 24 36 26 12 16 27 22 12 25 32 37 32 24 19 17 19 19 23 22 23 24 23 23 23 19 22 12 14 15 14 17 15 14 14 14 13 12 12 11 10 11 10 9 9 8
4 7 12 14 24 24 14 21 28 19 19 26 31 26 30 28 21 13 14 18 19 21 22 25 25 25 24 22 16 24 18 18 15 17 15 14 15 15 15 14 13 12 11 10 11 9 10 10 8
16 10 7 7 11 21 18 28 19 25 24 27 28 33 28 25 17 9 14 17 15 18 20 23 27 28 25 19 20 19 14 18 17 16 17 16 17 17 17 16 14 11 11 10 11 11 10 9 9
12 11 7 5 8 10 21 24 21 15 27 25 31 35 25 21 6 7 11 15 14 18 20 21 23 28 23 16 18 20 18 17 18 18 18 17 18 17 17 16 15 12 12 10 12 10 9 10 9
9 14 14 8 12 20 22 35 14 20 24 25 34 27 19 14 5 15 15 15 17 19 17 19 24 25 20 20 19 18 17 17 17 17 18 18 18 17 16 17 14 13 12 11 11 10 10 10 10
Wind_Direction
321 321 301 254 230 235 251 239 309 254 235 29 311 283 339 329 353 13 33 20 307 164 158 169 162 161 162 165 160 158 160 158 157 158 157 148 138 121 110 108 102 96 94 89 87 83 78 76 75
317 322 245 257 246 229 255 242 163 295 23 315 275 286 249 212 37 13 46 350 282 176 161 174 167 160 164 163 161 162 166 166 168 168 151 138 122 115 107 94 99 104 89 76 77 78 72 69 66
303 295 255 230 242 247 269 45 346 360 321 313 307 319 335 22 33 12 28 337 240 179 167 173 164 162 164 163 164 170 173 174 151 140 133 123 124 125 120 110 82 77 85 91 86 77 68 67 66
326 208 237 244 244 250 277 352 346 305 257 298 349 286 141 67 352 348 345 329 215 179 179 153 162 165 164 166 172 178 171 151 137 132 135 136 134 133 122 114 103 101 100 98 91 87 84 81 75
255 252 251 244 258 271 291 299 301 290 288 276 333 277 266 67 356 3 4 323 237 194 130 154 160 170 167 170 175 167 150 141 138 139 141 138 135 131 123 115 110 106 104 102 99 96 90 79 70
258 285 250 256 265 202 282 290 300 283 281 292 286 276 279 81 18 353 350 300 255 245 158 177 167 178 173 167 171 155 140 145 149 146 140 139 136 131 125 117 112 108 106 103 103 100 91 78 79
298 277 271 291 283 283 284 345 289 302 294 281 353 275 284 104 25 10 358 317 264 230 198 209 180 185 174 163 154 139 144 148 148 144 140 136 133 129 126 122 116 112 109 109 111 111 99 95 90
301 268 275 277 289 300 324 300 293 289 293 329 283 257 256 58 358 343 355 4 297 251 222 210 188 180 174 151 141 137 137 144 147 138 131 122 119 123 128 131 117 114 116 114 104 118 111 104 97
323 256 286 298 287 293 297 286 290 300 272 284 268 264 275 296 309 305 313 322 342 306 237 216 202 189 160 149 139 130 132 139 133 130 143 155 146 158 155 81 101 122 114 108 107 115 121 119 105
284 280 315 332 304 296 295 291 293 296 288 275 277 265 260 270 274 275 282 293 299 287 284 230 211 180 159 151 160 153 154 166 175 169 173 177 149 115 115 112 105 103 109 110 116 129 158 190 146
333 272 328 293 297 300 293 289 289 284 274 266 273 279 287 279 272 268 275 266 275 277 256 252 181 170 166 157 168 163 167 183 179 172 180 159 134 145 155 144 151 144 166 147 162 169 196 108 102
298 259 284 290 299 296 286 294 285 277 266 281 277 277 281 275 268 257 266 262 261 246 252 222 218 187 175 166 173 167 176 179 181 176 178 164 159 163 158 156 145 150 164 146 158 132 128 118 103
256 286 296 289 291 287 287 278 276 274 273 272 273 271 268 268 265 264 262 263 258 260 238 215 207 201 182 167 181 168 179 179 179 175 175 173 160 165 155 148 154 147 156 149 143 133 129 122 111
322 296 295 294 288 289 281 279 280 267 268 268 269 268 266 266 265 264 255 258 258 247 241 206 199 218 203 172 178 173 171 179 169 171 174 168 159 160 153 145 139 137 145 137 137 122 109 116 121
292 298 300 272 287 293 311 285 252 292 272 270 268 272 272 270 264 258 258 257 256 253 237 200 195 194 216 207 178 159 163 166 168 168 167 166 156 156 148 139 142 134 136 131 127 121 126 122 124
292 278 310 332 259 296 298 286 298 309 289 280 285 274 278 278 270 265 259 256 251 253 246 208 192 194 186 213 172 155 142 176 162 159 168 165 157 149 143 141 132 133 139 139 136 133 127 118 117
229 300 309 311 226 292 261 293 290 292 286 284 281 275 276 275 263 256 256 255 253 249 239 213 186 189 163 148 285 154 146 169 158 153 155 163 152 148 140 135 132 137 133 130 131 126 127 125 125
308 307 302 299 309 303 293 284 291 293 286 281 282 279 276 273 266 260 255 249 248 247 248 205 172 171 153 141 147 224 139 156 155 149 150 153 145 142 126 126 130 133 130 129 126 124 91 64 47
297 296 297 296 296 295 293 292 290 296 294 285 285 285 290 286 270 258 253 247 250 247 237 180 161 166 159 159 153 203 160 162 155 143 145 143 137 130 126 124 127 126 126 121 124 120 124 75 32
293 298 292 296 307 302 306 293 294 293 287 291 295 304 308 309 286 262 246 243 241 240 237 168 159 168 168 163 144 200 176 157 146 135 135 138 132 129 125 123 119 116 120 122 127 131 114 93 23
293 288 296 302 311 308 303 294 307 313 302 295 302 308 312 312 292 272 248 237 234 234 195 165 164 176 168 163 153 148 170 158 138 136 134 139 131 120 116 118 120 116 111 107 103 118 126 118 57
293 272 309 303 305 303 352 295 305 293 289 276 295 311 321 322 312 275 247 236 222 229 178 168 171 174 173 164 162 138 160 166 162 136 138 131 127 120 115 114 114 110 109 109 104 84 88 106 105
274 304 303 294 285 292 285 242 287 300 305 296 295 322 328 328 314 295 247 229 224 214 173 175 170 172 167 163 154 144 145 196 152 133 132 128 126 122 121 118 118 116 108 104 105 95 79 62 69
286 301 303 293 262 256 286 236 291 306 320 299 304 315 319 322 303 287 250 215 216 175 159 169 169 172 159 153 145 152 153 155 159 144 134 133 132 127 125 123 119 115 114 109 98 88 83 83 80
283 316 309 278 273 281 316 307 285 294 298 319 330 325 324 316 298 282 230 207 203 157 157 161 164 167 158 149 161 131 145 167 161 148 140 140 141 135 136 126 126 116 114 112 108 98 85 71 78
303 297 289 302 308 299 304 273 292 308 323 344 318 327 324 313 299 282 216 199 179 154 157 161 159 154 152 149 151 133 154 147 153 146 141 143 139 134 135 125 118 117 116 115 109 99 94 88 81
342 266 294 284 281 282 277 286 314 338 343 325 323 325 320 314 311 272 203 196 157 152 164 157 154 149 140 136 139 130 160 142 151 146 139 137 128 132 127 121 120 119 118 120 109 110 105 89 80
224 325 301 290 305 312 309 303 325 330 338 325 330 338 329 318 303 242 196 164 161 155 158 154 153 148 140 132 130 130 141 144 146 138 130 132 129 128 124 119 116 122 111 112 109 94 96 104 79
277 263 228 263 263 292 313 307 312 332 335 344 344 327 323 315 303 205 156 134 150 145 146 149 149 141 132 129 127 123 135 143 141 138 133 133 128 128 123 120 119 126 117 110 99 105 97 92 90
262 271 285 288 298 294 288 287 323 327 359 358 324 308 319 326 23 92 103 128 130 128 119 132 133 127 136 139 119 113 124 131 128 132 126 129 122 119 123 116 115 118 105 106 100 105 87 87 76